Location: Oberstdorf
(47.4188°N, 10.2969°E)
Time: 00:16:20
(UTC+01:00)

N. Korean satellite - Visible Passes

Search period start: 22 November 2017 00:00
Search period end: 02 December 2017 00:00
Orbit: 460 x 514 km, 97.2° (Epoch: 21 November)

Date Brightness Start Highest point End Pass type
(mag) Time Alt. Az. Time Alt. Az. Time Alt. Az.
22 Nov 9.7 06:19:18 10° NE 06:22:07 20° E 06:24:57 10° SE visible
22 Nov 7.3 18:31:20 10° S 18:34:46 52° W 18:38:19 10° NNW visible
23 Nov 10.2 05:57:12 10° ENE 05:58:25 11° E 05:59:39 10° ESE visible
23 Nov 6.4 18:07:44 10° SSE 18:11:16 78° ENE 18:14:54 10° N visible
24 Nov 6.9 17:44:31 10° SE 17:47:50 40° ENE 17:51:15 10° N visible
24 Nov 9.7 19:19:24 10° SW 19:21:34 15° W 19:23:47 10° NW visible
25 Nov 8.5 06:41:49 10° NNE 06:45:18 35° E 06:48:47 10° SSE visible
25 Nov 7.7 17:21:39 10° ESE 17:24:29 23° ENE 17:27:22 10° NNE visible
25 Nov 8.7 18:54:48 10° SSW 18:57:53 28° W 19:01:03 10° NW visible
26 Nov 9.7 06:18:49 10° NE 06:21:40 20° E 06:24:30 10° SE visible
26 Nov 7.3 18:30:48 10° S 18:34:17 53° W 18:37:51 10° NNW visible
27 Nov 10.2 05:56:42 10° ENE 05:57:57 11° E 05:59:11 10° ESE visible
27 Nov 6.4 18:07:12 10° SSE 18:10:45 78° ENE 18:14:25 10° N visible
28 Nov 7.2 07:04:35 10° NNE 07:08:22 68° E 07:12:06 10° S visible
28 Nov 7.0 17:43:56 10° SE 17:47:18 40° ENE 17:50:45 10° N visible
28 Nov 9.7 19:18:47 10° SW 19:21:02 16° W 19:23:19 10° NW visible
29 Nov 8.5 06:41:17 10° NNE 06:44:47 35° E 06:48:16 10° SSE visible
29 Nov 7.7 17:21:04 10° ESE 17:23:55 23° ENE 17:26:51 10° NNE visible
29 Nov 8.7 18:54:12 10° SSW 18:57:20 28° W 19:00:32 10° NW visible
30 Nov 9.6 06:18:17 10° NE 06:21:08 20° E 06:23:57 10° SE visible
30 Nov 7.3 18:30:11 10° S 18:33:42 54° W 18:37:19 10° NNW visible
01 Dec 10.2 05:56:11 10° ENE 05:57:23 11° E 05:58:35 10° ESE visible
01 Dec 6.4 18:06:34 10° SSE 18:10:09 78° ENE 18:13:52 10° N visible
